CYAS

Kangirsuk Supplementary Aviation Weather Reporting  Airport

Kangirsuk, Canada
Issued Wind Visibility Ceiling Temperature Dew Point Humidity Barometer
Nov-22
22:00 UTC
220°
6 KTS
15 miles Broken
1,900' AGL
-12° C
10° F
-14° C
F
85% 29.64" Hg
1005.1 hPa
MVFR
Nov-22
21:00 UTC
260°
3 KTS
15 miles   -13° C
F
-15° C
F
85% 29.63" Hg
1004.9 hPa
VFR
Nov-22
20:00 UTC
230°
14 KTS
15 miles   -13° C
F
-15° C
F
85% 29.6" Hg
1003.9 hPa
VFR
Nov-22
19:00 UTC
280°
8 KTS
15 miles Broken
23,000' AGL
-13° C
F
-15° C
F
85% 29.59" Hg
1003.4 hPa
VFR
Nov-22
18:14 UTC
290°
16 KTS
Gust 21 KTS
15 miles Broken
23,000' AGL
-12° C
10° F
-14° C
F
85% 29.57" Hg
1002.7 hPa
VFR
Nov-22
18:00 UTC
230°
17 KTS
15 miles Broken
23,000' AGL
-12° C
10° F
-14° C
F
85% 29.57" Hg
1002.7 hPa
VFR
Nov-22
17:00 UTC
220°
16 KTS
15 miles   -12° C
10° F
-14° C
F
85% 29.54" Hg
1001.8 hPa
VFR
Nov-22
16:00 UTC
210°
17 KTS
15 miles   -11° C
12° F
-13° C
F
85% 29.53" Hg
1001.4 hPa
VFR
Nov-22
15:00 UTC
200°
16 KTS
15 miles Broken
6,700' AGL
-10° C
14° F
-13° C
F
79% 29.53" Hg
1001.3 hPa
VFR
Nov-22
14:00 UTC
170°
15 KTS
15 miles Overcast
5,800' AGL
-10° C
14° F
-12° C
10° F
85% 29.53" Hg
1001.4 hPa
VFR
Nov-22
13:27 UTC
170°
14 KTS
Gust 20 KTS
15 miles Overcast
5,800' AGL
-10° C
14° F
-12° C
10° F
85% 29.53" Hg
1001.4 hPa
VFR
Nov-22
13:00 UTC
170°
13 KTS
Gust 18 KTS
5 miles Overcast
5,200' AGL
-9° C
16° F
-11° C
12° F
86% 29.53" Hg
1001.4 hPa
MVFR